Weather History for WMKI - November, 2012

Change the Weather History Date:

Sunday, November 4, 2012

  Actual Average Record
Temperature  
Mean Temperature 80 °F -  
Max Temperature 87 °F - - ()
Min Temperature 73 °F - - ()
Cooling Degree Days 15    
Growing Degree Days 30 (Base 50)    
Moisture  
Dew Point 75 °F    
Average Humidity 90    
Maximum Humidity 100    
Minimum Humidity 66    
Precipitation  
Precipitation 0.00 in - - ()
Sea Level Pressure  
Sea Level Pressure 29.82 in    
Wind  
Wind Speed 3 mph ()    
Max Wind Speed 8 mph    
Max Gust Speed -    
Visibility 5.4 miles    
Events Rain , Thunderstorm    
T = Trace of Precipitation, MM = Missing Value Source: Averaged Metar Reports

Daily Weather History Graph

Daily Weather History Graph

Search for Another Location

Airport or City:

Trip Planner

Search our weather history database for the weather conditions in past years. The results will help you decide how hot, cold, wet, or windy it might be!

Date:

Astronomy

Nov. 04, 2012 Rise Set
Actual Time 7:00 AM MYT 6:57 PM MYT
Civil Twilight 6:39 AM MYT 7:19 PM MYT
Nautical Twilight 6:14 AM MYT 7:43 PM MYT
Astronomical Twilight 5:49 AM MYT 8:08 PM MYT
Moon 11:18 PM MYT (11/4) 11:07 AM MYT (11/4)
Length of Visible Light 12h 39m
Length of Day
11h 56m
Waning Gibbous, 76% of the Moon is Illuminated
Nov 4
Waning Gibbous
Nov 7
Last Quarter
Nov 14
New
Nov 20
First Quarter
Nov 28
Full

Hourly Weather History & Observations

Time (MYT) Temp. Heat Index Dew Point Humidity Pressure Visibility Wind Dir Wind Speed Gust Speed Precip Events Conditions
12:00 AM 78.8 °F - 77.0 °F 94% 29.83 in 5.0 mi North 2.3 mph - N/A   Mostly Cloudy
1:00 AM 77.0 °F - 77.0 °F 100% 29.83 in 5.0 mi NNE 3.5 mph - N/A   Mostly Cloudy
2:00 AM 77.0 °F - 77.0 °F 100% 29.83 in 5.0 mi NE 4.6 mph - N/A   Mostly Cloudy
3:00 AM 77.0 °F - 75.2 °F 94% 29.83 in 5.0 mi NE 2.3 mph - N/A   Mostly Cloudy
4:00 AM 77.0 °F - 75.2 °F 94% 29.80 in 5.0 mi NNE 2.3 mph - N/A   Mostly Cloudy
5:00 AM 77.0 °F - 75.2 °F 94% 29.80 in 5.6 mi NNE 4.6 mph - N/A   Mostly Cloudy
6:00 AM 75.2 °F - 73.4 °F 94% 29.80 in 5.0 mi NNE 4.6 mph - N/A   Mostly Cloudy
7:00 AM 75.2 °F - 73.4 °F 94% 29.83 in 6.2 mi NE 5.8 mph - N/A   Mostly Cloudy
8:00 AM 77.0 °F - 73.4 °F 89% 29.83 in 6.2 mi NNE 4.6 mph - N/A   Mostly Cloudy
9:00 AM 78.8 °F - 75.2 °F 89% 29.86 in 6.2 mi NNE 3.5 mph - N/A   Mostly Cloudy
10:00 AM 80.6 °F 86.2 °F 75.2 °F 84% 29.89 in 6.2 mi NE 4.6 mph - N/A   Mostly Cloudy
11:00 AM 82.4 °F 89.5 °F 75.2 °F 79% 29.86 in 6.2 mi North 2.3 mph - N/A   Mostly Cloudy
12:00 PM 86.0 °F 96.9 °F 77.0 °F 74% 29.86 in 6.2 mi South 2.3 mph - N/A   Scattered Clouds
1:00 PM 87.8 °F 97.6 °F 75.2 °F 66% 29.80 in 6.2 mi SW 6.9 mph - N/A   Mostly Cloudy
2:00 PM 86.0 °F 96.9 °F 77.0 °F 74% 29.77 in 6.2 mi South 5.8 mph - N/A   Mostly Cloudy
3:00 PM 80.6 °F 86.2 °F 75.2 °F 84% 29.77 in 6.2 mi South 8.1 mph - N/A Rain Light Rain Showers
4:00 PM 78.8 °F - 75.2 °F 89% 29.77 in 6.2 mi South 3.5 mph - N/A   Mostly Cloudy
5:00 PM 75.2 °F - 75.2 °F 100% 29.77 in 1.9 mi SSW 4.6 mph - N/A Rain , Thunderstorm Heavy Thunderstorms and Rain
6:00 PM 75.2 °F - 73.4 °F 94% 29.80 in 4.3 mi South 3.5 mph - N/A Rain Light Rain
7:00 PM 75.2 °F - 73.4 °F 94% 29.83 in 4.3 mi SE 2.3 mph - N/A Rain Light Rain
8:00 PM 73.4 °F - 73.4 °F 100% 29.86 in 3.7 mi North 1.2 mph - N/A Rain Rain
9:00 PM 73.4 °F - 73.4 °F 100% 29.86 in 5.0 mi Calm Calm - N/A Rain Light Rain
10:00 PM 75.2 °F - 73.4 °F 94% 29.86 in 6.2 mi Calm Calm - N/A   Mostly Cloudy
11:00 PM 75.2 °F - 73.4 °F 94% 29.86 in 5.6 mi NNE 3.5 mph - N/A Rain Light Rain